Hourly Data Report for September 11, 2017

All times are specified in Local Standard Time (LST). Add 1 hour to adjust for Daylight Saving Time where and when it is observed.

PETAWAWA AWOS 2
ONTARIO

45°57'00.000" N
77°19'00.000" W
130.10 m
6106396
71625
YWA

Download Data

Hourly Data (September 2017)
Hourly Data Report for September 11, 2017
Temp Definition
°C
Dew Point Temp Definition
°C
Rel Hum Definition
%
Wind Dir Definition
10's deg

Wind Spd Definition
km/h
Visibility Definition
km
Stn Press Definition
kPa
Hmdx Definition


Wind Chill Definition


Weather Definition


TIME
00:00 7.4 7.0 97 27 4 14.5 101.35     LegendNANA
01:00 7.0 6.7 98 25 6 14.5 101.33     LegendNANA
02:00 8.1 7.9 99 31 6 14.5 101.31     LegendNANA
03:00 6.3 6.0 98   0 14.5 101.31     LegendNANA
04:00 6.5 6.4 99   0 14.5 101.28     LegendNANA
05:00 5.5 5.2 98 26 4 14.5 101.24     LegendNANA
06:00 6.0 5.8 99 25 4 14.5 101.23     LegendNANA
07:00 7.6 7.3 98 26 4 14.5 101.24     LegendNANA
08:00 10.1 9.5 96 28 6 14.5 101.26     LegendNANA
09:00 12.6 10.9 89   0 14.5 101.23     LegendNANA
10:00 14.2 11.7 85 5 6 14.5 101.19     LegendNANA
11:00 16.3 12.1 76 6 7 14.5 101.11     LegendNANA
12:00
13:00
14:00 21.1 11.8 55 11 9 14.5 100.79     LegendNANA
15:00 21.7 13.4 59 11 7 14.5 100.72 25   LegendNANA
16:00 23.2 12.2 50 20 6 14.5 100.65 26   LegendNANA
17:00 22.3 12.1 52 20 9 14.5 100.57 25   LegendNANA
18:00 19.1 13.1 68 21 4 14.5 100.53     LegendNANA
19:00 14.9 13.4 91 22 4 14.5 100.49     LegendNANA
20:00 12.5 11.2 92 21 6 14.5 100.45     LegendNANA
21:00 12.6 11.4 92   0 14.5 100.42     LegendNANA
22:00 12.8 11.3 91 34 6 14.5 100.39     LegendNANA
23:00 10.0 9.9 99 26 4 14.5 100.38     LegendNANA

Notes on Data Quality.

Legend

  • E = Estimated
  • M = Missing
  • NA = Not Available
  • ‡ = Partner data that is not subject to review by the National Climate Archives
Date modified: